timestamp,surface_pressure_avg,surface_temp_avg,battery_voltage,lat,long
2021-07-13 00:09:01+00:00,319.1497,14.4,13.21,47.84626,-54.09684
2021-07-13 00:19:01+00:00,325.8613,14.4,12.89,47.84626,-54.09684
2021-07-13 00:29:01+00:00,331.6364,14.44,12.89,47.84626,-54.09684
2021-07-13 00:39:01+00:00,334.1447,14.49,12.89,47.84626,-54.09684
2021-07-13 00:49:01+00:00,337.7747,14.5,12.89,47.84626,-54.09684
2021-07-13 00:59:01+00:00,340.7429,14.5,12.89,47.84626,-54.09684
2021-07-13 01:09:01+00:00,344.5847,14.49,12.89,47.84626,-54.09684
2021-07-13 01:19:00+00:00,346.4913,14.45,12.73,47.84626,-54.09684
2021-07-13 01:29:00+00:00,347.0029,14.4,12.73,47.84626,-54.09684
2021-07-13 01:39:00+00:00,347.3563,14.4,12.73,47.84626,-54.09684
2021-07-13 01:49:00+00:00,343.0729,14.4,12.73,47.84626,-54.09684
2021-07-13 01:59:00+00:00,343.048,14.39,12.73,47.84626,-54.09684
2021-07-13 02:09:00+00:00,349.5162,14.37,12.73,47.84626,-54.09684
2021-07-13 02:19:01+00:00,352.1063,14.3,12.73,47.84626,-54.09684
2021-07-13 02:29:01+00:00,343.4529,14.3,12.73,47.84626,-54.09684
2021-07-13 02:39:01+00:00,335.67800000000005,14.3,12.73,47.84626,-54.09684
2021-07-13 02:49:01+00:00,338.99300000000005,14.3,12.73,47.84626,-54.09684
2021-07-13 02:59:01+00:00,339.36800000000005,14.3,12.73,47.84626,-54.09684
2021-07-13 03:09:01+00:00,333.23800000000006,14.3,12.73,47.84626,-54.09684
2021-07-13 03:19:01+00:00,329.048,14.3,12.73,47.84626,-54.09684
2021-07-13 03:29:01+00:00,328.3130000000001,14.3,12.73,47.84626,-54.09684
2021-07-13 03:39:01+00:00,318.7679,14.29,12.73,47.84626,-54.09684
2021-07-13 03:49:01+00:00,309.108,14.24,12.73,47.84626,-54.09684
2021-07-13 03:59:01+00:00,306.548,14.2,12.73,47.84626,-54.09684
2021-07-13 04:09:01+00:00,304.8914,14.2,12.73,47.84626,-54.09684
2021-07-13 04:19:00+00:00,294.923,14.2,12.65,47.84626,-54.09684
2021-07-13 04:29:00+00:00,289.1848,14.2,12.65,47.84626,-54.09684
2021-07-13 04:39:00+00:00,288.1613,14.2,12.65,47.84626,-54.09684
2021-07-13 04:49:00+00:00,281.2681,14.19,12.65,47.84626,-54.09684
2021-07-13 04:59:00+00:00,269.7947,14.16,12.65,47.84626,-54.09684
2021-07-13 05:09:00+00:00,261.868,14.16,12.65,47.84626,-54.09684
2021-07-13 05:19:00+00:00,254.2348,14.18,12.65,47.84626,-54.09684
2021-07-13 05:29:00+00:00,243.5131,14.18,12.65,47.84626,-54.09684
2021-07-13 05:39:00+00:00,235.0148,14.17,12.65,47.84626,-54.09684
2021-07-13 05:49:00+00:00,229.1581,14.19,12.65,47.84626,-54.09684
2021-07-13 05:59:00+00:00,223.4381,14.18,12.65,47.84626,-54.09684
2021-07-13 06:09:00+00:00,216.3348,14.17,12.65,47.84626,-54.09684
2021-07-13 06:19:01+00:00,210.2198,14.16,12.65,47.84626,-54.09684
2021-07-13 06:29:01+00:00,204.8765,14.11,12.65,47.84626,-54.09684
2021-07-13 06:39:01+00:00,201.0497,14.1,12.65,47.84626,-54.09684
2021-07-13 06:49:01+00:00,196.0048,14.1,12.65,47.84626,-54.09684
2021-07-13 06:59:01+00:00,191.6215,14.0,12.65,47.84626,-54.09684
2021-07-13 07:09:01+00:00,189.1881,14.0,12.65,47.84626,-54.09684
2021-07-13 07:19:01+00:00,189.5098,14.0,12.65,47.84626,-54.09684
2021-07-13 07:29:01+00:00,192.4898,14.0,12.65,47.84626,-54.09684
2021-07-13 07:39:01+00:00,193.2065,13.99,12.65,47.84626,-54.09684
2021-07-13 07:49:01+00:00,193.8249,13.99,12.65,47.84626,-54.09684
2021-07-13 07:59:01+00:00,194.6831,14.0,12.65,47.84626,-54.09684
2021-07-13 08:09:01+00:00,193.6831,14.0,12.65,47.84626,-54.09684
2021-07-13 08:19:01+00:00,195.6398,14.0,12.65,47.84626,-54.09684
2021-07-13 08:29:01+00:00,200.9014,14.0,12.65,47.84626,-54.09684
2021-07-13 08:39:01+00:00,201.7681,14.0,12.65,47.84626,-54.09684
2021-07-13 08:49:01+00:00,201.1648,13.99,12.65,47.84626,-54.09684
2021-07-13 08:59:01+00:00,207.2715,13.99,12.65,47.84626,-54.09684
2021-07-13 09:09:01+00:00,212.2531,13.99,12.65,47.84626,-54.09684
2021-07-13 09:19:01+00:00,213.6281,13.99,12.73,47.84626,-54.09684
2021-07-13 09:29:01+00:00,219.8731,13.98,12.73,47.84626,-54.09684
2021-07-13 09:39:01+00:00,223.9614,13.98,12.73,47.84626,-54.09684
2021-07-13 09:49:01+00:00,226.0264,13.97,12.73,47.84626,-54.09684
2021-07-13 09:59:01+00:00,230.6031,13.95,12.73,47.84626,-54.09684
2021-07-13 10:09:01+00:00,235.4231,13.86,12.73,47.84626,-54.09684
2021-07-13 10:19:01+00:00,239.3131,13.65,13.05,47.84626,-54.09684
2021-07-13 10:29:01+00:00,244.0081,13.8,13.05,47.84626,-54.09684
2021-07-13 10:39:01+00:00,248.1064,12.77,13.05,47.84626,-54.09684
2021-07-13 10:49:01+00:00,254.9398,12.1,13.05,47.84626,-54.09684
2021-07-13 10:59:01+00:00,259.7497,12.19,13.05,47.84626,-54.09684
2021-07-13 11:09:01+00:00,266.7548,12.4,13.05,47.84626,-54.09684
2021-07-13 11:19:01+00:00,269.6331,13.38,13.84,47.84626,-54.09684
2021-07-13 11:29:01+00:00,276.0997,13.84,13.84,47.84626,-54.09684
2021-07-13 11:39:01+00:00,283.558,12.11,13.84,47.84626,-54.09684
2021-07-13 11:49:01+00:00,290.4097,12.08,13.84,47.84626,-54.09684
2021-07-13 11:59:01+00:00,292.6863,12.83,13.84,47.84626,-54.09684
2021-07-13 12:09:01+00:00,297.6081,13.22,13.84,47.84626,-54.09684
2021-07-13 12:19:01+00:00,302.8314,13.41,14.24,47.84626,-54.09684
2021-07-13 12:29:01+00:00,309.7213,13.7,14.24,47.84626,-54.09684
2021-07-13 12:39:01+00:00,314.6846,13.67,14.24,47.84626,-54.09684
2021-07-13 12:49:01+00:00,323.6613,13.1,14.24,47.84626,-54.09684
2021-07-13 12:59:01+00:00,328.593,13.0,14.24,47.84626,-54.09684
2021-07-13 13:09:01+00:00,330.74300000000005,12.9,14.24,47.84626,-54.09684
2021-07-13 13:19:01+00:00,332.4597,12.86,14.4,47.84626,-54.09684
2021-07-13 13:29:01+00:00,334.86300000000006,12.78,14.4,47.84626,-54.09684
2021-07-13 13:39:01+00:00,335.8497,12.79,14.4,47.84626,-54.09684
2021-07-13 13:49:01+00:00,333.9747,12.9,14.4,47.84626,-54.09684
2021-07-13 13:59:01+00:00,335.8063,12.99,14.4,47.84626,-54.09684
2021-07-13 14:09:01+00:00,333.3964,13.0,14.4,47.84626,-54.09684
2021-07-13 14:19:01+00:00,330.2064,13.0,14.4,47.84626,-54.09684
2021-07-13 14:29:01+00:00,328.3963,12.9,14.4,47.84626,-54.09684
2021-07-13 14:39:01+00:00,328.1647,12.8,14.4,47.84626,-54.09684
2021-07-13 14:49:01+00:00,326.3529,12.8,14.4,47.84626,-54.09684
2021-07-13 14:59:01+00:00,322.1946,12.8,14.4,47.84626,-54.09684
2021-07-13 15:09:01+00:00,320.9796,12.8,14.4,47.84626,-54.09684
2021-07-13 15:19:01+00:00,317.4813,12.71,14.32,47.84626,-54.09684
2021-07-13 15:29:01+00:00,314.9664,12.76,14.32,47.84626,-54.09684
2021-07-13 15:39:01+00:00,313.4546,12.79,14.32,47.84626,-54.09684
2021-07-13 15:49:01+00:00,310.9197,12.8,14.32,47.84626,-54.09684
2021-07-13 15:59:01+00:00,308.9197,12.7,14.32,47.84626,-54.09684
2021-07-13 16:09:01+00:00,305.103,12.7,14.32,47.84626,-54.09684
2021-07-13 16:19:01+00:00,295.8981,12.7,14.32,47.84626,-54.09684
2021-07-13 16:29:01+00:00,287.5797,12.61,14.32,47.84626,-54.09684
2021-07-13 16:39:01+00:00,282.1097,12.64,14.32,47.84626,-54.09684
2021-07-13 16:49:01+00:00,275.1515,12.64,14.32,47.84626,-54.09684
2021-07-13 16:59:01+00:00,265.863,13.3,14.32,47.84626,-54.09684
2021-07-13 17:09:01+00:00,259.4364,13.07,14.32,47.84626,-54.09684
2021-07-13 17:19:00+00:00,252.3848,12.7,14.16,47.84626,-54.09684
2021-07-13 17:29:00+00:00,241.5714,12.77,14.16,47.84626,-54.09684
2021-07-13 17:39:00+00:00,232.4865,12.89,14.16,47.84626,-54.09684
2021-07-13 17:49:00+00:00,226.4347,12.7,14.16,47.84626,-54.09684
2021-07-13 17:59:00+00:00,221.0065,12.7,14.16,47.84626,-54.09684
2021-07-13 18:09:00+00:00,213.9764,12.7,14.16,47.84626,-54.09684
2021-07-13 18:19:00+00:00,205.2748,12.7,13.92,47.84626,-54.09684
2021-07-13 18:29:00+00:00,197.4931,12.7,13.92,47.84626,-54.09684
2021-07-13 18:39:00+00:00,193.5931,13.09,13.92,47.84626,-54.09684
2021-07-13 18:49:00+00:00,192.8598,13.37,13.92,47.84626,-54.09684
2021-07-13 18:59:00+00:00,191.9865,13.36,13.92,47.84626,-54.09684
2021-07-13 19:09:00+00:00,188.9848,13.3,13.92,47.84626,-54.09684
2021-07-13 19:19:01+00:00,185.0598,13.2,13.84,47.84626,-54.09684
2021-07-13 19:29:01+00:00,183.2215,13.2,13.84,47.84626,-54.09684
2021-07-13 19:39:01+00:00,185.1214,13.2,13.84,47.84626,-54.09684
2021-07-13 19:49:01+00:00,186.0414,13.0,13.84,47.84626,-54.09684
2021-07-13 19:59:01+00:00,184.9698,12.8,13.84,47.84626,-54.09684
2021-07-13 20:09:01+00:00,185.5398,12.6,13.84,47.84626,-54.09684
2021-07-13 20:19:01+00:00,189.6548,12.5,13.68,47.84626,-54.09684
2021-07-13 20:29:01+00:00,193.7115,12.49,13.68,47.84626,-54.09684
2021-07-13 20:39:01+00:00,196.8115,12.6,13.68,47.84626,-54.09684
2021-07-13 20:49:01+00:00,199.5881,12.4,13.68,47.84626,-54.09684
2021-07-13 20:59:01+00:00,202.0515,12.3,13.68,47.84626,-54.09684
2021-07-13 21:09:01+00:00,206.0214,12.29,13.68,47.84626,-54.09684
2021-07-13 21:19:01+00:00,208.7564,12.3,13.68,47.84626,-54.09684
2021-07-13 21:29:01+00:00,213.4581,12.3,13.68,47.84626,-54.09684
2021-07-13 21:39:01+00:00,218.9814,12.33,13.68,47.84626,-54.09684
2021-07-13 21:49:01+00:00,222.1997,12.39,13.68,47.84626,-54.09684
2021-07-13 21:59:01+00:00,222.4531,12.4,13.68,47.84626,-54.09684
2021-07-13 22:09:01+00:00,228.8281,12.4,13.68,47.84626,-54.09684
2021-07-13 22:19:01+00:00,238.8548,12.41,13.53,47.84626,-54.09684
2021-07-13 22:29:01+00:00,242.3997,12.45,13.53,47.84626,-54.09684
2021-07-13 22:39:01+00:00,243.6164,12.48,13.53,47.84626,-54.09684
2021-07-13 22:49:01+00:00,250.6914,12.5,13.53,47.84626,-54.09684
2021-07-13 22:59:01+00:00,257.4948,12.5,13.53,47.84626,-54.09684
2021-07-13 23:09:01+00:00,259.3347,12.54,13.53,47.84626,-54.09684
2021-07-13 23:19:01+00:00,261.9764,12.5,13.29,47.84626,-54.09684
2021-07-13 23:29:01+00:00,270.0014,12.5,13.29,47.84626,-54.09684
2021-07-13 23:39:01+00:00,275.108,12.52,13.29,47.84626,-54.09684
2021-07-13 23:49:01+00:00,278.2797,12.53,13.29,47.84626,-54.09684
2021-07-13 23:59:01+00:00,284.758,12.53,13.29,47.84626,-54.09684
